Home   Weather   Marigot   Past weeks

Past Weather in Marigot, Saint Martin — Yesterday and Last 2 Weeks

81 °F

Passing clouds.

Feels Like: 88 °F
Forecast: 81 / 87 °F
Wind: 2 mph from North

Location: Juliana Airport - Saint Maarten

Current Time: Oct 27, 2016 at 3:07:18 AM

Latest Report: Oct 27, 2016 at 2:00 AM

Visibility: N/A

Pressure: 29.80 "Hg

Humidity: 94%

Dew Point: 79 °F

Location of MarigotLocation

Past Weather in Marigot — Graph


Marigot Temperature Yesterday

Maximum temperature yesterday: 88 °F (at 10:00 AM)
Minimum temperature yesterday: 81 °F (at 5:00 AM)
Average temperature yesterday: 84 °F

High & Low Weather Summary for the Past Weeks

High90 °F (Oct 15, 1:00 PM)100% (Oct 26, 12:00 PM)30.01 "Hg (Oct 26, 12:00 PM)
Low77 °F (Oct 25, 2:00 AM)49% (Oct 15, 1:00 PM)29.77 "Hg (Oct 25, 3:00 PM)
Average85 °F78%29.90 "Hg
* Reported Oct 12 12:00 AM — Oct 27 12:00 AM, Marigot, Weather by CustomWeather, © 2016

Note: Actual official high and low records may vary slightly from our data, if they occured in-between our weather recording intervals... More about our weather records


Marigot Weather History for the Previous 24 Hours

Scroll right to see more
Time TempWeatherWind HumidityBarometerVisibility
12:00 AM
Thu, Oct 27
82 °FPassing clouds.3 mph89%29.83 "HgN/A
11:00 PM
Wed, Oct 26
82 °FPassing clouds.2 mph84%29.83 "HgN/A
10:00 PM82 °FPassing clouds.5 mph84%29.86 "HgN/A
9:00 PM82 °FPassing clouds.5 mph84%29.86 "HgN/A
8:00 PM82 °FPassing clouds.2 mph84%29.83 "HgN/A
7:00 PM84 °FPassing clouds.3 mph79%29.83 "HgN/A
6:00 PM84 °FPassing clouds.5 mph79%29.80 "HgN/A
5:00 PM84 °FScattered showers. Scattered clouds.8 mph84%29.80 "HgN/A
4:00 PM86 °FScattered showers. Scattered clouds.8 mph75%29.80 "HgN/A
3:00 PM84 °FScattered showers. Partly sunny.10 mph84%29.80 "HgN/A
2:00 PM86 °FScattered showers. Scattered clouds.7 mph75%29.80 "HgN/A
1:00 PM88 °FScattered showers. Scattered clouds.8 mph75%29.83 "HgN/A
12:00 PM86 °FScattered showers. Partly sunny.13 mph100%29.83 "HgN/A
11:00 AM88 °FScattered clouds.7 mph70%29.86 "HgN/A
10:00 AM88 °FPassing clouds.6 mph66%29.89 "HgN/A
9:00 AM86 °FPassing clouds.7 mph70%29.89 "HgN/A
8:00 AM86 °FPassing clouds.6 mph75%29.86 "HgN/A
7:00 AM82 °FPassing clouds.5 mph84%29.86 "HgN/A
6:00 AM82 °FPassing clouds.6 mph84%29.83 "HgN/A
5:00 AM81 °FPassing clouds.5 mph89%29.83 "HgN/A
4:00 AM82 °FPassing clouds.5 mph84%29.80 "HgN/A
3:00 AM82 °FPassing clouds.5 mph84%29.80 "HgN/A
Weather by CustomWeather, © 2016

See weather overviewHow to use our weather pages